Time,TemperatureF,DewpointF,PressureIn,WindDirection,WindDirectionDegrees,WindSpeedMPH,WindSpeedGustMPH,Humidity,HourlyPrecipIn,Conditions,Clouds,dailyrainin,SolarRadiationWatts/m^2,SoftwareType,DateUTC
2013-02-11 00:04:00,45.9,30.9,29.47,ENE,69,2.3,3.0,55,-99.99,,,0.00,0,rob ver 1A,2013-02-11 07:04:00,
2013-02-11 00:09:00,46.2,31.2,29.47,NE,44,1.7,2.0,55,-99.99,,,0.00,0,rob ver 1A,2013-02-11 07:09:00,
2013-02-11 00:14:00,47.7,31.4,29.47,ESE,110,3.0,3.5,52,-99.99,,,0.00,0,rob ver 1A,2013-02-11 07:14:00,
2013-02-11 00:19:00,46.9,31.2,29.47,ESE,117,4.4,5.1,54,-99.99,,,0.00,0,rob ver 1A,2013-02-11 07:19:00,
2013-02-11 00:24:00,46.0,31.3,29.47,ESE,108,2.6,2.9,56,-99.99,,,0.00,0,rob ver 1A,2013-02-11 07:24:00,
2013-02-11 00:29:00,45.4,31.4,29.47,SE,127,2.7,3.3,57,-99.99,,,0.00,0,rob ver 1A,2013-02-11 07:29:00,
2013-02-11 00:35:00,45.8,31.8,29.47,SE,141,1.7,2.4,57,-99.99,,,0.00,0,rob ver 1A,2013-02-11 07:35:00,
2013-02-11 00:40:00,46.0,31.8,29.47,ESE,117,2.4,3.2,57,-99.99,,,0.00,0,rob ver 1A,2013-02-11 07:40:00,
2013-02-11 00:45:00,46.0,31.4,29.47,NE,39,2.9,3.3,56,-99.99,,,0.00,0,rob ver 1A,2013-02-11 07:45:00,
2013-02-11 00:50:00,45.3,31.2,29.47,NE,51,3.3,3.8,57,-99.99,,,0.00,0,rob ver 1A,2013-02-11 07:50:00,
2013-02-11 00:55:00,45.7,31.8,29.47,East,88,2.6,3.2,57,-99.99,,,0.00,0,rob ver 1A,2013-02-11 07:55:00,
2013-02-11 01:00:00,46.2,31.6,29.47,East,91,2.3,2.6,56,-99.99,,,0.00,0,rob ver 1A,2013-02-11 08:00:00,
2013-02-11 01:05:00,45.3,31.3,29.47,NE,53,2.6,3.0,57,-99.99,,,0.00,0,rob ver 1A,2013-02-11 08:05:00,
2013-02-11 01:10:00,45.6,31.6,29.47,ENE,78,2.6,3.5,57,-99.99,,,0.00,0,rob ver 1A,2013-02-11 08:10:00,
2013-02-11 01:15:00,45.6,31.2,29.47,ENE,62,3.7,4.5,56,-99.99,,,0.00,0,rob ver 1A,2013-02-11 08:15:00,
2013-02-11 01:20:00,44.6,31.1,29.47,ENE,60,4.0,4.6,59,-99.99,,,0.00,0,rob ver 1A,2013-02-11 08:20:00,
2013-02-11 01:25:00,44.4,30.9,29.47,ENE,58,4.5,5.1,58,-99.99,,,0.00,0,rob ver 1A,2013-02-11 08:25:00,
2013-02-11 01:30:00,44.0,30.9,29.47,ENE,60,3.7,4.7,59,-99.99,,,0.00,0,rob ver 1A,2013-02-11 08:30:00,
2013-02-11 01:35:00,44.0,30.8,29.47,ENE,63,2.9,3.6,59,-99.99,,,0.00,0,rob ver 1A,2013-02-11 08:35:00,
2013-02-11 01:40:00,43.4,30.7,29.47,ENE,71,3.4,3.8,60,-99.99,,,0.00,0,rob ver 1A,2013-02-11 08:40:00,
2013-02-11 01:45:00,43.3,30.5,29.47,ENE,57,3.6,4.6,60,-99.99,,,0.00,0,rob ver 1A,2013-02-11 08:45:00,
2013-02-11 01:50:00,43.3,30.4,29.47,NE,52,3.9,4.8,60,-99.99,,,0.00,0,rob ver 1A,2013-02-11 08:50:00,
2013-02-11 01:55:00,43.4,30.4,29.47,ENE,68,3.4,4.2,60,-99.99,,,0.00,0,rob ver 1A,2013-02-11 08:55:00,
2013-02-11 02:00:00,43.5,30.4,29.47,ENE,59,3.7,4.2,59,-99.99,,,0.00,0,rob ver 1A,2013-02-11 09:00:00,
2013-02-11 02:05:00,43.4,30.5,29.47,ENE,60,4.2,4.7,59,-99.99,,,0.00,0,rob ver 1A,2013-02-11 09:05:00,
2013-02-11 02:10:00,43.3,30.5,29.47,ENE,62,3.7,4.4,60,-99.99,,,0.00,0,rob ver 1A,2013-02-11 09:10:00,
2013-02-11 02:15:00,43.3,30.6,29.47,ENE,78,3.7,4.5,60,-99.99,,,0.00,0,rob ver 1A,2013-02-11 09:15:00,
2013-02-11 02:20:00,43.5,30.8,29.47,East,79,3.7,4.0,60,-99.99,,,0.00,0,rob ver 1A,2013-02-11 09:20:00,
2013-02-11 02:25:00,43.7,30.8,29.47,ENE,76,3.4,3.8,59,-99.99,,,0.00,0,rob ver 1A,2013-02-11 09:25:00,
2013-02-11 02:30:00,43.7,30.9,29.47,ENE,77,3.0,3.9,60,-99.99,,,0.00,0,rob ver 1A,2013-02-11 09:30:00,
2013-02-11 02:35:00,43.8,30.8,29.47,ENE,77,2.9,3.4,60,-99.99,,,0.00,0,rob ver 1A,2013-02-11 09:35:00,
2013-02-11 02:40:00,43.9,31.0,29.47,ESE,107,2.1,3.0,60,-99.99,,,0.00,0,rob ver 1A,2013-02-11 09:40:00,
2013-02-11 02:45:00,44.4,31.4,29.47,ESE,117,2.8,3.5,59,-99.99,,,0.00,0,rob ver 1A,2013-02-11 09:45:00,
2013-02-11 02:51:00,44.9,31.7,29.47,ESE,116,2.1,2.7,59,-99.99,,,0.00,0,rob ver 1A,2013-02-11 09:51:00,
2013-02-11 02:56:00,44.7,31.5,29.47,East,93,2.6,3.1,59,-99.99,,,0.00,0,rob ver 1A,2013-02-11 09:56:00,
2013-02-11 03:01:00,43.9,31.2,29.47,NE,52,3.7,4.2,60,-99.99,,,0.00,0,rob ver 1A,2013-02-11 10:01:00,
2013-02-11 03:06:00,43.4,30.9,29.47,NE,44,3.5,4.1,61,-99.99,,,0.00,0,rob ver 1A,2013-02-11 10:06:00,
2013-02-11 03:11:00,43.2,31.0,29.47,NE,40,3.4,4.0,62,-99.99,,,0.00,0,rob ver 1A,2013-02-11 10:11:00,
2013-02-11 03:16:00,43.7,31.4,29.47,ENE,59,2.7,3.3,61,-99.99,,,0.00,0,rob ver 1A,2013-02-11 10:16:00,
2013-02-11 03:21:00,43.8,31.2,29.47,NE,52,3.9,4.3,61,-99.99,,,0.00,0,rob ver 1A,2013-02-11 10:21:00,
2013-02-11 03:26:00,43.5,31.1,29.47,NE,49,3.4,4.1,61,-99.99,,,0.00,0,rob ver 1A,2013-02-11 10:26:00,
2013-02-11 03:31:00,42.9,30.9,29.47,NE,54,3.5,4.3,62,-99.99,,,0.00,0,rob ver 1A,2013-02-11 10:31:00,
2013-02-11 03:36:00,43.0,30.8,29.47,ENE,64,3.6,4.5,61,-99.99,,,0.00,0,rob ver 1A,2013-02-11 10:36:00,
2013-02-11 03:41:00,42.3,30.5,29.47,NE,45,4.5,5.2,62,-99.99,,,0.00,0,rob ver 1A,2013-02-11 10:41:00,
2013-02-11 03:46:00,41.9,30.5,29.47,NE,45,4.5,5.3,63,-99.99,,,0.00,0,rob ver 1A,2013-02-11 10:46:00,
2013-02-11 03:51:00,42.0,30.5,29.47,NE,49,4.0,4.8,63,-99.99,,,0.00,0,rob ver 1A,2013-02-11 10:51:00,
2013-02-11 03:56:00,41.8,30.6,29.47,NE,51,4.6,5.3,64,-99.99,,,0.00,0,rob ver 1A,2013-02-11 10:56:00,
2013-02-11 04:01:00,41.2,30.4,29.47,NE,45,3.5,4.4,65,-99.99,,,0.00,0,rob ver 1A,2013-02-11 11:01:00,
2013-02-11 04:06:00,41.1,30.4,29.47,NE,46,4.5,5.4,65,-99.99,,,0.00,0,rob ver 1A,2013-02-11 11:06:00,
2013-02-11 04:11:00,41.2,30.6,29.47,NE,44,4.0,4.8,66,-99.99,,,0.00,0,rob ver 1A,2013-02-11 11:11:00,
2013-02-11 04:16:00,41.5,30.7,29.47,NE,42,3.9,4.4,65,-99.99,,,0.00,0,rob ver 1A,2013-02-11 11:16:00,
2013-02-11 04:21:00,41.6,30.7,29.47,NE,40,3.9,4.2,64,-99.99,,,0.00,0,rob ver 1A,2013-02-11 11:21:00,
2013-02-11 04:26:00,41.6,30.8,29.47,NNE,28,3.3,3.4,65,-99.99,,,0.00,0,rob ver 1A,2013-02-11 11:26:00,
2013-02-11 04:32:00,41.6,30.8,29.47,NNE,33,2.8,3.2,65,-99.99,,,0.00,0,rob ver 1A,2013-02-11 11:32:00,
2013-02-11 04:37:00,42.5,31.3,29.47,ENE,57,2.5,3.0,63,-99.99,,,0.00,0,rob ver 1A,2013-02-11 11:37:00,
2013-02-11 04:42:00,42.7,31.4,29.47,NE,54,1.5,1.8,63,-99.99,,,0.00,0,rob ver 1A,2013-02-11 11:42:00,
2013-02-11 04:47:00,42.8,31.3,29.47,East,80,1.6,2.4,63,-99.99,,,0.00,0,rob ver 1A,2013-02-11 11:47:00,
2013-02-11 04:52:00,42.3,31.0,29.47,NE,53,2.1,2.6,64,-99.99,,,0.00,0,rob ver 1A,2013-02-11 11:52:00,
2013-02-11 04:57:00,42.6,31.5,29.47,NE,56,2.6,3.0,64,-99.99,,,0.00,0,rob ver 1A,2013-02-11 11:57:00,
2013-02-11 05:02:00,42.3,31.3,29.47,NE,46,3.5,3.8,64,-99.99,,,0.00,0,rob ver 1A,2013-02-11 12:02:00,
2013-02-11 05:07:00,43.2,31.7,29.47,NE,46,2.1,2.8,63,-99.99,,,0.00,0,rob ver 1A,2013-02-11 12:07:00,
2013-02-11 05:12:00,43.0,31.4,29.47,NE,52,2.1,2.7,63,-99.99,,,0.00,0,rob ver 1A,2013-02-11 12:12:00,
2013-02-11 05:17:00,42.9,31.5,29.47,NE,43,2.1,2.5,63,-99.99,,,0.00,0,rob ver 1A,2013-02-11 12:17:00,
2013-02-11 05:22:00,42.8,31.5,29.47,NE,53,2.9,3.3,63,-99.99,,,0.00,0,rob ver 1A,2013-02-11 12:22:00,
2013-02-11 05:27:00,42.3,31.0,29.47,NNE,21,3.1,3.4,64,-99.99,,,0.00,0,rob ver 1A,2013-02-11 12:27:00,
2013-02-11 05:32:00,41.2,30.9,29.47,North,2,3.1,3.3,66,-99.99,,,0.00,0,rob ver 1A,2013-02-11 12:32:00,
2013-02-11 05:37:00,40.5,30.9,29.47,NNW,344,3.5,3.8,68,-99.99,,,0.00,0,rob ver 1A,2013-02-11 12:37:00,
2013-02-11 05:42:00,40.6,31.2,29.47,NNW,340,2.1,2.4,69,-99.99,,,0.00,0,rob ver 1A,2013-02-11 12:42:00,
2013-02-11 05:47:00,40.7,31.2,29.47,NW,323,1.7,2.7,68,-99.99,,,0.00,0,rob ver 1A,2013-02-11 12:47:00,
2013-02-11 05:52:00,40.4,31.0,29.47,WSW,240,3.6,5.1,69,-99.99,,,0.00,0,rob ver 1A,2013-02-11 12:52:00,
2013-02-11 05:57:00,39.3,31.5,29.47,West,278,4.0,4.3,73,-99.99,,,0.00,0,rob ver 1A,2013-02-11 12:57:00,
2013-02-11 06:02:00,39.6,31.7,29.47,NW,306,4.7,5.3,72,-99.99,,,0.00,0,rob ver 1A,2013-02-11 13:02:00,
2013-02-11 06:07:00,40.3,31.7,29.47,NW,311,3.6,4.1,71,-99.99,,,0.00,0,rob ver 1A,2013-02-11 13:07:00,
2013-02-11 06:12:00,40.5,31.8,29.47,NNW,327,3.6,4.3,70,-99.99,,,0.00,0,rob ver 1A,2013-02-11 13:12:00,
2013-02-11 06:17:00,40.8,31.8,29.47,NW,325,3.0,3.4,70,-99.99,,,0.00,0,rob ver 1A,2013-02-11 13:17:00,
2013-02-11 06:22:00,40.8,31.9,29.50,NW,323,2.8,3.1,70,-99.99,,,0.00,0,rob ver 1A,2013-02-11 13:22:00,
2013-02-11 06:27:00,41.0,31.9,29.50,NW,324,3.0,3.3,69,-99.99,,,0.00,0,rob ver 1A,2013-02-11 13:27:00,
2013-02-11 06:32:00,41.1,32.0,29.50,NW,323,2.1,2.6,69,-99.99,,,0.00,0,rob ver 1A,2013-02-11 13:32:00,
2013-02-11 06:38:00,40.1,31.4,29.50,WSW,238,3.3,3.7,71,-99.99,,,0.00,0,rob ver 1A,2013-02-11 13:38:00,
2013-02-11 06:43:00,39.2,31.5,29.50,West,259,2.3,2.8,73,-99.99,,,0.00,0,rob ver 1A,2013-02-11 13:43:00,
2013-02-11 06:48:00,39.5,31.8,29.50,West,274,2.9,3.6,73,-99.99,,,0.00,0,rob ver 1A,2013-02-11 13:48:00,
2013-02-11 06:53:00,40.1,31.9,29.50,West,277,3.0,3.3,72,-99.99,,,0.00,0,rob ver 1A,2013-02-11 13:53:00,
2013-02-11 06:58:00,39.9,31.8,29.50,West,265,2.1,2.3,72,-99.99,,,0.00,0,rob ver 1A,2013-02-11 13:58:00,
2013-02-11 07:03:00,39.8,31.8,29.50,West,265,1.9,2.2,73,-99.99,,,0.00,0,rob ver 1A,2013-02-11 14:03:00,
2013-02-11 07:08:00,39.7,31.9,29.50,WSW,241,3.6,4.0,73,-99.99,,,0.00,.329,rob ver 1A,2013-02-11 14:08:00,
2013-02-11 07:13:00,40.0,32.0,29.50,West,259,2.2,2.6,72,-99.99,,,0.00,.987,rob ver 1A,2013-02-11 14:13:00,
2013-02-11 07:18:00,40.1,32.0,29.50,SW,233,3.5,3.9,72,-99.99,,,0.00,1.974,rob ver 1A,2013-02-11 14:18:00,
2013-02-11 07:23:00,40.2,32.1,29.50,WSW,257,2.1,2.4,72,-99.99,,,0.00,4.277,rob ver 1A,2013-02-11 14:23:00,
2013-02-11 07:28:00,40.5,32.2,29.50,WSW,237,1.7,2.1,72,-99.99,,,0.00,10.2,rob ver 1A,2013-02-11 14:28:00,
2013-02-11 07:33:00,40.8,32.3,29.50,WSW,258,1.3,1.6,71,-99.99,,,0.00,20.56,rob ver 1A,2013-02-11 14:33:00,
2013-02-11 07:38:00,41.5,32.4,29.50,SSW,201,1.4,1.8,69,-99.99,,,0.00,30.27,rob ver 1A,2013-02-11 14:38:00,
2013-02-11 07:43:00,42.1,32.5,29.50,SSE,157,1.0,1.4,68,-99.99,,,0.00,42.44,rob ver 1A,2013-02-11 14:43:00,
2013-02-11 07:48:00,42.3,32.4,29.50,SSE,164,2.2,2.4,67,-99.99,,,0.00,47.05,rob ver 1A,2013-02-11 14:48:00,
2013-02-11 07:53:00,42.6,32.5,29.50,SSE,165,1.2,1.7,66,-99.99,,,0.00,49.68,rob ver 1A,2013-02-11 14:53:00,
2013-02-11 07:58:00,43.3,32.5,29.53,SSW,213,1.4,1.8,65,-99.99,,,0.00,52.31,rob ver 1A,2013-02-11 14:58:00,
2013-02-11 08:03:00,42.8,32.4,29.53,West,262,2.8,3.4,66,-99.99,,,0.00,49.35,rob ver 1A,2013-02-11 15:03:00,
2013-02-11 08:09:00,42.9,32.6,29.53,WSW,245,3.2,3.8,66,-99.99,,,0.00,50.33,rob ver 1A,2013-02-11 15:09:00,
2013-02-11 08:14:00,42.8,32.8,29.53,WSW,255,3.1,3.7,67,-99.99,,,0.00,52.47,rob ver 1A,2013-02-11 15:14:00,
2013-02-11 08:19:00,42.9,33.0,29.53,West,262,3.2,3.9,67,-99.99,,,0.00,60.86,rob ver 1A,2013-02-11 15:19:00,
2013-02-11 08:24:00,43.4,32.6,29.53,West,278,3.4,4.7,65,-99.99,,,0.00,72.7,rob ver 1A,2013-02-11 15:24:00,
2013-02-11 08:29:00,44.2,32.1,29.53,NW,309,4.4,5.1,61,-99.99,,,0.00,87.8,rob ver 1A,2013-02-11 15:29:00,
2013-02-11 08:34:00,44.7,32.2,29.53,WNW,293,5.1,6.3,61,-99.99,,,0.00,101,rob ver 1A,2013-02-11 15:34:00,
2013-02-11 08:39:00,45.3,31.4,29.53,WNW,293,6.7,10.2,54,-99.99,,,0.00,109.7,rob ver 1A,2013-02-11 15:39:00,
2013-02-11 08:44:00,46.8,29.2,29.53,WNW,293,11.5,16.9,47,-99.99,,,0.00,107.2,rob ver 1A,2013-02-11 15:44:00,
2013-02-11 08:49:00,49.0,26.7,29.53,WNW,293,14.8,18.0,41,-99.99,,,0.00,118.3,rob ver 1A,2013-02-11 15:49:00,
2013-02-11 08:54:00,49.4,26.6,29.53,WNW,298,13.6,19.8,40,-99.99,,,0.00,130.4,rob ver 1A,2013-02-11 15:54:00,
2013-02-11 08:59:00,49.8,26.2,29.53,WNW,297,16.8,21.1,39,-99.99,,,0.00,151.6,rob ver 1A,2013-02-11 15:59:00,
2013-02-11 09:04:00,49.9,26.6,29.53,WNW,294,17.8,22.6,39,-99.99,,,0.00,159.2,rob ver 1B,2013-02-11 16:04:00,
2013-02-11 09:09:00,50.1,27.6,29.53,WNW,303,18.1,21.6,41,-99.99,,,0.00,179.6,rob ver 1A,2013-02-11 16:09:00,
2013-02-11 09:14:00,50.4,28.3,29.53,WNW,302,18.7,22.1,42,-99.99,,,0.00,220.5,rob ver 1A,2013-02-11 16:14:00,
2013-02-11 09:19:00,51.2,28.4,29.56,WNW,303,17.4,22.2,41,-99.99,,,0.00,306.1,rob ver 1A,2013-02-11 16:19:00,
2013-02-11 09:24:00,51.2,28.4,29.56,NW,307,16.5,19.7,40,-99.99,,,0.00,198.3,rob ver 1A,2013-02-11 16:24:00,
2013-02-11 09:29:00,51.0,27.4,29.56,NW,306,18.9,22.3,40,-99.99,,,0.00,198.8,rob ver 1B,2013-02-11 16:29:00,
2013-02-11 09:34:00,51.0,27.5,29.56,WNW,300,15.4,20.0,39,-99.99,,,0.00,199.2,rob ver 1A,2013-02-11 16:34:00,
2013-02-11 09:40:00,51.0,27.4,29.56,NW,313,17.8,21.9,39,-99.99,,,0.00,225.9,rob ver 1A,2013-02-11 16:40:00,
2013-02-11 09:45:00,51.2,27.5,29.56,NW,309,16.2,19.9,39,-99.99,,,0.00,221.2,rob ver 1A,2013-02-11 16:45:00,
2013-02-11 09:50:00,51.3,27.9,29.56,NW,307,16.9,20.9,40,-99.99,,,0.00,234,rob ver 1A,2013-02-11 16:50:00,
2013-02-11 09:55:00,51.4,28.1,29.56,NW,305,16.7,23.6,40,-99.99,,,0.00,223.5,rob ver 1B,2013-02-11 16:55:00,
2013-02-11 10:00:00,51.4,28.5,29.56,NW,314,16.3,19.8,40,-99.99,,,0.00,184.2,rob ver 1A,2013-02-11 17:00:00,
2013-02-11 10:05:00,51.4,29.4,29.56,NW,307,18.7,21.7,42,-99.99,,,0.00,181.8,rob ver 1B,2013-02-11 17:05:00,
2013-02-11 10:10:00,51.2,29.9,29.56,WNW,298,20.0,26.2,43,-99.99,,,0.00,189.8,rob ver 1A,2013-02-11 17:10:00,
2013-02-11 10:15:00,51.1,30.3,29.56,WNW,302,17.7,21.6,44,-99.99,,,0.00,217.3,rob ver 1A,2013-02-11 17:15:00,
2013-02-11 10:20:00,51.1,30.3,29.56,NW,304,19.4,23.1,44,-99.99,,,0.00,201,rob ver 1A,2013-02-11 17:20:00,
2013-02-11 10:25:00,51.0,30.3,29.56,WNW,302,19.0,22.4,45,-99.99,,,0.00,198.5,rob ver 1A,2013-02-11 17:25:00,
2013-02-11 10:30:00,51.0,30.5,29.56,NW,305,18.6,24.1,45,-99.99,,,0.00,225.3,rob ver 1A,2013-02-11 17:30:00,
2013-02-11 10:35:00,51.1,30.7,29.56,NW,306,15.1,18.9,45,-99.99,,,0.00,223.5,rob ver 1A,2013-02-11 17:35:00,
2013-02-11 10:40:00,51.2,30.8,29.56,WNW,301,19.2,23.2,45,-99.99,,,0.00,220.2,rob ver 1A,2013-02-11 17:40:00,
2013-02-11 10:45:00,51.4,30.7,29.56,NW,314,16.4,20.0,45,-99.99,,,0.00,234,rob ver 1A,2013-02-11 17:45:00,
2013-02-11 10:50:00,52.2,31.0,29.56,NW,314,15.8,19.3,43,-99.99,,,0.00,485.8,rob ver 1A,2013-02-11 17:50:00,
2013-02-11 10:55:00,53.2,30.9,29.56,WNW,302,19.7,23.4,41,-99.99,,,0.00,457.8,rob ver 1A,2013-02-11 17:55:00,
2013-02-11 11:00:00,52.9,31.3,29.56,NW,310,17.7,22.7,43,-99.99,,,0.00,406.5,rob ver 1A,2013-02-11 18:00:00,
2013-02-11 11:06:00,52.6,31.1,29.56,WNW,299,18.2,24.6,43,-99.99,,,0.00,328.7,rob ver 1A,2013-02-11 18:06:00,
2013-02-11 11:11:00,52.2,31.8,29.59,WNW,299,18.2,22.4,45,-99.99,,,0.00,241.2,rob ver 1A,2013-02-11 18:11:00,
2013-02-11 11:16:00,51.8,32.1,29.59,WNW,299,18.7,22.3,46,-99.99,,,0.00,283.9,rob ver 1A,2013-02-11 18:16:00,
2013-02-11 11:21:00,51.2,32.0,29.59,NW,311,14.8,17.5,47,-99.99,,,0.00,311.5,rob ver 1A,2013-02-11 18:21:00,
2013-02-11 11:26:00,51.5,31.9,29.59,NW,310,13.9,18.1,46,-99.99,,,0.00,256.3,rob ver 1A,2013-02-11 18:26:00,
2013-02-11 11:31:00,52.2,32.4,29.59,NW,307,11.9,15.0,46,-99.99,,,0.00,241.8,rob ver 1A,2013-02-11 18:31:00,
2013-02-11 11:36:00,51.9,31.4,29.59,NW,306,14.3,17.9,45,-99.99,,,0.00,214.9,rob ver 1A,2013-02-11 18:36:00,
2013-02-11 11:41:00,51.7,31.7,29.59,NW,305,14.4,17.5,46,-99.99,,,0.00,197.1,rob ver 1A,2013-02-11 18:41:00,
2013-02-11 11:46:00,51.7,32.0,29.59,WNW,287,16.4,21.7,47,-99.99,,,0.00,287.2,rob ver 1A,2013-02-11 18:46:00,
2013-02-11 11:51:00,52.1,32.6,29.59,WNW,297,12.4,15.5,47,-99.99,,,0.00,728,rob ver 1A,2013-02-11 18:51:00,
2013-02-11 11:56:00,53.2,32.4,29.59,WNW,300,17.7,22.6,45,-99.99,,,0.00,711,rob ver 1A,2013-02-11 18:56:00,
2013-02-11 12:01:00,53.9,32.5,29.59,WNW,284,15.4,19.5,43,-99.99,,,0.00,708,rob ver 1A,2013-02-11 19:01:00,
2013-02-11 12:06:00,53.7,32.6,29.59,NW,315,16.3,20.4,43,-99.99,,,0.00,708,rob ver 1A,2013-02-11 19:06:00,
2013-02-11 12:11:00,53.6,32.5,29.59,WNW,296,16.8,20.3,44,-99.99,,,0.00,709,rob ver 1A,2013-02-11 19:11:00,
2013-02-11 12:16:00,53.8,32.8,29.59,NW,314,15.9,21.4,44,-99.99,,,0.00,710,rob ver 1A,2013-02-11 19:16:00,
2013-02-11 12:21:00,53.9,33.0,29.59,NW,307,14.5,17.4,44,-99.99,,,0.00,712,rob ver 1A,2013-02-11 19:21:00,
2013-02-11 12:26:00,54.2,31.7,29.59,WNW,301,16.6,19.8,42,-99.99,,,0.00,718,rob ver 1A,2013-02-11 19:26:00,
2013-02-11 12:32:00,53.9,31.6,29.59,WNW,283,17.2,20.5,43,-99.99,,,0.00,720,rob ver 1A,2013-02-11 19:32:00,
2013-02-11 12:37:00,54.8,31.2,29.59,WNW,289,14.8,17.5,40,-99.99,,,0.00,720,rob ver 1A,2013-02-11 19:37:00,
2013-02-11 12:42:00,54.5,30.3,29.59,NW,326,11.8,16.9,39,-99.99,,,0.00,720,rob ver 1A,2013-02-11 19:42:00,
2013-02-11 12:47:00,54.9,29.8,29.59,NW,306,11.4,15.1,37,-99.99,,,0.00,722,rob ver 1A,2013-02-11 19:47:00,
2013-02-11 12:52:00,55.3,27.4,29.59,WNW,295,19.4,24.6,34,-99.99,,,0.00,723,rob ver 1B,2013-02-11 19:52:00,
2013-02-11 12:57:00,54.8,27.9,29.59,WNW,295,16.4,20.0,34,-99.99,,,0.00,722,rob ver 1A,2013-02-11 19:57:00,
2013-02-11 13:02:00,56.0,27.3,29.59,NNW,331,15.5,20.0,31,-99.99,,,0.00,723,rob ver 1A,2013-02-11 20:02:00,
2013-02-11 13:07:00,56.2,26.7,29.56,NW,322,19.5,24.4,31,-99.99,,,0.00,722,rob ver 1A,2013-02-11 20:07:00,
2013-02-11 13:12:00,55.7,26.7,29.56,NW,310,17.3,20.9,31,-99.99,,,0.00,717,rob ver 1A,2013-02-11 20:12:00,
2013-02-11 13:17:00,56.0,26.1,29.56,NW,313,21.0,27.1,31,-99.99,,,0.00,717,rob ver 1A,2013-02-11 20:17:00,
2013-02-11 13:22:00,55.7,26.1,29.56,NW,323,18.5,22.3,31,-99.99,,,0.00,716,rob ver 1A,2013-02-11 20:22:00,
2013-02-11 13:27:00,55.8,25.5,29.56,WNW,303,16.7,20.9,30,-99.99,,,0.00,714,rob ver 1A,2013-02-11 20:27:00,
2013-02-11 13:32:00,56.5,26.3,29.56,NW,313,15.0,18.9,31,-99.99,,,0.00,711,rob ver 1A,2013-02-11 20:32:00,
2013-02-11 13:37:00,56.0,25.7,29.56,NW,309,16.8,21.0,29,-99.99,,,0.00,707,rob ver 1A,2013-02-11 20:37:00,
2013-02-11 13:42:00,56.9,24.7,29.56,WNW,296,16.2,20.5,29,-99.99,,,0.00,704,rob ver 1A,2013-02-11 20:42:00,
2013-02-11 13:47:00,56.3,23.7,29.56,West,279,20.1,24.7,28,-99.99,,,0.00,701,rob ver 1A,2013-02-11 20:47:00,
2013-02-11 13:52:00,56.6,23.8,29.56,WNW,294,17.8,23.5,27,-99.99,,,0.00,696,rob ver 1A,2013-02-11 20:52:00,
2013-02-11 13:57:00,56.4,22.3,29.56,WNW,301,21.7,25.9,26,-99.99,,,0.00,690.6,rob ver 1A,2013-02-11 20:57:00,
2013-02-11 14:02:00,56.7,21.9,29.56,WNW,294,21.5,27.0,25,-99.99,,,0.00,687,rob ver 1A,2013-02-11 21:02:00,
2013-02-11 14:07:00,57.0,21.8,29.56,WNW,289,20.8,25.5,25,-99.99,,,0.00,678.8,rob ver 1A,2013-02-11 21:07:00,
2013-02-11 14:12:00,56.2,22.0,29.56,WNW,302,19.1,21.4,26,-99.99,,,0.00,673.8,rob ver 1A,2013-02-11 21:12:00,
2013-02-11 14:17:00,56.2,21.2,29.56,WNW,298,18.2,21.3,25,-99.99,,,0.00,666.9,rob ver 1A,2013-02-11 21:17:00,
2013-02-11 14:22:00,56.4,21.6,29.56,WNW,286,15.2,18.6,25,-99.99,,,0.00,658.4,rob ver 1A,2013-02-11 21:22:00,
2013-02-11 14:28:00,57.3,21.5,29.56,NW,307,19.9,24.8,24,-99.99,,,0.00,652,rob ver 1A,2013-02-11 21:28:00,
2013-02-11 14:33:00,56.5,21.2,29.56,WNW,288,13.2,16.8,24,-99.99,,,0.00,642.9,rob ver 1A,2013-02-11 21:33:00,
2013-02-11 14:38:00,57.0,20.4,29.56,WNW,284,18.0,20.8,23,-99.99,,,0.00,635.7,rob ver 1A,2013-02-11 21:38:00,
2013-02-11 14:43:00,57.2,19.7,29.56,WNW,299,15.5,18.4,23,-99.99,,,0.00,625.4,rob ver 1A,2013-02-11 21:43:00,
2013-02-11 14:48:00,57.0,21.0,29.56,NW,322,17.3,24.0,24,-99.99,,,0.00,614.2,rob ver 1A,2013-02-11 21:48:00,
2013-02-11 14:53:00,56.6,20.8,29.56,NW,315,17.6,23.0,24,-99.99,,,0.00,604.4,rob ver 1A,2013-02-11 21:53:00,
2013-02-11 14:58:00,57.1,19.6,29.56,WNW,300,16.3,19.6,23,-99.99,,,0.00,594.3,rob ver 1A,2013-02-11 21:58:00,
2013-02-11 15:03:00,57.3,19.6,29.56,NW,309,19.4,26.7,22,-99.99,,,0.00,583.2,rob ver 1A,2013-02-11 22:03:00,
2013-02-11 15:08:00,57.2,19.5,29.56,NW,313,20.1,24.7,22,-99.99,,,0.00,574,rob ver 1A,2013-02-11 22:08:00,
2013-02-11 15:13:00,56.8,19.7,29.56,WNW,303,12.3,15.1,23,-99.99,,,0.00,563.5,rob ver 1A,2013-02-11 22:13:00,
2013-02-11 15:18:00,57.6,19.3,29.56,WNW,296,16.6,22.3,21,-99.99,,,0.00,551,rob ver 1A,2013-02-11 22:18:00,
2013-02-11 15:23:00,57.4,18.6,29.56,WNW,301,16.3,20.0,21,-99.99,,,0.00,539,rob ver 1A,2013-02-11 22:23:00,
2013-02-11 15:28:00,57.6,18.0,29.56,WNW,294,21.1,26.1,21,-99.99,,,0.00,526,rob ver 1A,2013-02-11 22:28:00,
2013-02-11 15:33:00,57.8,18.6,29.56,NW,305,15.3,20.5,21,-99.99,,,0.00,511.6,rob ver 1A,2013-02-11 22:33:00,
2013-02-11 15:38:00,57.2,18.4,29.56,NW,319,14.1,19.9,21,-99.99,,,0.00,497.5,rob ver 1A,2013-02-11 22:38:00,
2013-02-11 15:43:00,57.8,18.2,29.56,NW,304,13.9,18.1,20,-99.99,,,0.00,486.3,rob ver 1A,2013-02-11 22:43:00,
2013-02-11 15:48:00,57.7,18.0,29.56,NW,313,16.5,21.9,20,-99.99,,,0.00,470.7,rob ver 1B,2013-02-11 22:48:00,
2013-02-11 15:53:00,57.7,17.4,29.56,WNW,297,12.0,15.5,20,-99.99,,,0.00,455.9,rob ver 1A,2013-02-11 22:53:00,
2013-02-11 15:58:00,58.0,17.1,29.56,WNW,287,17.0,20.8,19,-99.99,,,0.00,440.6,rob ver 1A,2013-02-11 22:58:00,
2013-02-11 16:04:00,58.0,16.9,29.56,West,272,15.5,18.4,19,-99.99,,,0.00,426.7,rob ver 1A,2013-02-11 23:04:00,
2013-02-11 16:09:00,58.1,16.8,29.56,WNW,283,12.1,17.6,19,-99.99,,,0.00,409.9,rob ver 1A,2013-02-11 23:09:00,
2013-02-11 16:14:00,58.2,16.2,29.56,NW,316,14.5,17.2,19,-99.99,,,0.00,395.8,rob ver 1A,2013-02-11 23:14:00,
2013-02-11 16:19:00,58.5,16.5,29.56,NW,307,13.6,16.0,19,-99.99,,,0.00,379.4,rob ver 1A,2013-02-11 23:19:00,
2013-02-11 16:24:00,58.4,16.2,29.56,NW,304,12.8,15.3,18,-99.99,,,0.00,364.5,rob ver 1A,2013-02-11 23:24:00,
2013-02-11 16:29:00,57.9,15.8,29.56,NW,308,12.4,15.0,18,-99.99,,,0.00,347.7,rob ver 1A,2013-02-11 23:29:00,
2013-02-11 16:34:00,58.4,15.4,29.56,WNW,287,19.0,24.4,18,-99.99,,,0.00,332.3,rob ver 1A,2013-02-11 23:34:00,
2013-02-11 16:39:00,58.6,15.3,29.56,WNW,284,16.9,21.1,17,-99.99,,,0.00,316.4,rob ver 1A,2013-02-11 23:39:00,
2013-02-11 16:44:00,58.2,15.0,29.56,West,280,15.2,19.0,18,-99.99,,,0.00,300.6,rob ver 1A,2013-02-11 23:44:00,
2013-02-11 16:49:00,58.3,15.8,29.56,WNW,292,11.9,14.2,18,-99.99,,,0.00,282.4,rob ver 1A,2013-02-11 23:49:00,
2013-02-11 16:54:00,58.8,15.7,29.56,WNW,296,12.4,15.3,18,-99.99,,,0.00,262.3,rob ver 1A,2013-02-11 23:54:00,
2013-02-11 16:59:00,58.4,15.4,29.56,NW,319,14.3,18.7,17,-99.99,,,0.00,246.8,rob ver 1B,2013-02-11 23:59:00,
2013-02-11 17:04:00,58.3,14.8,29.56,West,274,11.7,14.3,18,-99.99,,,0.00,229.2,rob ver 1A,2013-02-12 00:04:00,
2013-02-11 17:09:00,58.5,15.6,29.56,NW,309,15.8,19.2,18,-99.99,,,0.00,212.3,rob ver 1A,2013-02-12 00:09:00,
2013-02-11 17:14:00,58.3,14.9,29.56,WNW,299,15.7,18.7,17,-99.99,,,0.00,196.4,rob ver 1A,2013-02-12 00:14:00,
2013-02-11 17:19:00,58.3,14.3,29.59,WNW,301,14.8,18.2,17,-99.99,,,0.00,179.3,rob ver 1A,2013-02-12 00:19:00,
2013-02-11 17:24:00,58.0,14.1,29.59,WNW,292,13.3,15.8,17,-99.99,,,0.00,163.5,rob ver 1A,2013-02-12 00:24:00,
2013-02-11 17:29:00,58.0,14.2,29.59,WNW,303,13.9,15.8,17,-99.99,,,0.00,147.4,rob ver 1A,2013-02-12 00:29:00,
2013-02-11 17:34:00,57.7,14.8,29.59,NW,308,15.3,18.1,18,-99.99,,,0.00,132.7,rob ver 1A,2013-02-12 00:34:00,
2013-02-11 17:39:00,57.6,14.8,29.59,NNW,327,14.9,21.5,18,-99.99,,,0.00,117.1,rob ver 1A,2013-02-12 00:39:00,
2013-02-11 17:44:00,57.5,15.0,29.59,NW,322,12.4,15.8,18,-99.99,,,0.00,101.1,rob ver 1A,2013-02-12 00:44:00,
2013-02-11 17:49:00,57.4,15.3,29.59,NW,314,11.3,14.2,18,-99.99,,,0.00,86.5,rob ver 1A,2013-02-12 00:49:00,
2013-02-11 17:54:00,57.2,14.9,29.59,NW,316,13.1,16.4,18,-99.99,,,0.00,71.6,rob ver 1B,2013-02-12 00:54:00,
2013-02-11 17:59:00,56.9,14.8,29.59,NW,316,13.8,16.8,18,-99.99,,,0.00,57.13,rob ver 1A,2013-02-12 00:59:00,
2013-02-11 18:05:00,56.9,14.6,29.59,WNW,301,13.5,17.1,18,-99.99,,,0.00,51.88,rob ver 1A,2013-02-12 01:05:00,
2013-02-11 18:10:00,56.7,15.3,29.59,NW,312,12.8,15.1,19,-99.99,,,0.00,38.75,rob ver 1A,2013-02-12 01:10:00,
2013-02-11 18:15:00,56.6,15.7,29.59,NW,312,10.6,14.0,19,-99.99,,,0.00,26.6,rob ver 1A,2013-02-12 01:15:00,
2013-02-11 18:20:00,56.5,15.9,29.59,NW,308,10.1,12.4,20,-99.99,,,0.00,14.45,rob ver 1A,2013-02-12 01:20:00,
2013-02-11 18:25:00,55.9,16.3,29.59,NW,323,7.7,10.0,20,-99.99,,,0.00,3.284,rob ver 1A,2013-02-12 01:25:00,
2013-02-11 18:30:00,55.6,16.8,29.59,NW,312,8.6,11.5,21,-99.99,,,0.00,1.642,rob ver 1A,2013-02-12 01:30:00,
2013-02-11 18:35:00,55.5,17.0,29.59,NW,317,6.9,8.4,21,-99.99,,,0.00,.985,rob ver 1A,2013-02-12 01:35:00,
2013-02-11 18:40:00,55.3,16.8,29.59,NNW,329,8.0,10.9,21,-99.99,,,0.00,.328,rob ver 1A,2013-02-12 01:40:00,
2013-02-11 18:45:00,55.4,16.5,29.59,NNW,328,8.3,9.6,21,-99.99,,,0.00,0,rob ver 1A,2013-02-12 01:45:00,
2013-02-11 18:50:00,55.1,16.7,29.59,NW,319,6.3,8.1,21,-99.99,,,0.00,0,rob ver 1A,2013-02-12 01:50:00,
2013-02-11 18:55:00,54.9,16.9,29.59,NW,317,6.3,7.2,22,-99.99,,,0.00,0,rob ver 1A,2013-02-12 01:55:00,
2013-02-11 19:00:00,54.3,17.1,29.62,NW,317,4.8,6.1,22,-99.99,,,0.00,0,rob ver 1A,2013-02-12 02:00:00,
2013-02-11 19:05:00,53.9,17.3,29.62,NW,313,3.7,4.3,23,-99.99,,,0.00,0,rob ver 1B,2013-02-12 02:05:00,
2013-02-11 19:10:00,53.8,17.1,29.62,NW,326,3.6,4.3,23,-99.99,,,0.00,0,rob ver 1A,2013-02-12 02:10:00,
2013-02-11 19:15:00,53.8,17.2,29.62,NW,318,2.9,3.3,23,-99.99,,,0.00,0,rob ver 1A,2013-02-12 02:15:00,
2013-02-11 19:20:00,53.4,17.3,29.62,NW,322,2.7,3.0,23,-99.99,,,0.00,0,rob ver 1A,2013-02-12 02:20:00,
2013-02-11 19:25:00,53.2,17.3,29.62,NW,311,2.4,2.7,23,-99.99,,,0.00,0,rob ver 1A,2013-02-12 02:25:00,
2013-02-11 19:31:00,52.6,17.5,29.62,WSW,257,2.3,2.4,24,-99.99,,,0.00,0,rob ver 1A,2013-02-12 02:31:00,
2013-02-11 19:36:00,52.0,18.0,29.62,SW,220,2.2,2.4,25,-99.99,,,0.00,0,rob ver 1A,2013-02-12 02:36:00,
2013-02-11 19:41:00,51.5,18.0,29.62,WSW,254,0.9,1.0,26,-99.99,,,0.00,0,rob ver 1A,2013-02-12 02:41:00,
2013-02-11 19:46:00,51.2,17.9,29.62,NNW,343,0.9,1.2,26,-99.99,,,0.00,0,rob ver 1A,2013-02-12 02:46:00,
2013-02-11 19:51:00,51.5,17.3,29.62,NNW,328,1.1,1.4,25,-99.99,,,0.00,0,rob ver 1A,2013-02-12 02:51:00,
2013-02-11 19:56:00,51.7,17.6,29.62,NNW,334,0.7,0.8,25,-99.99,,,0.00,0,rob ver 1A,2013-02-12 02:56:00,
2013-02-11 20:01:00,51.3,17.4,29.62,NNE,28,0.1,0.2,25,-99.99,,,0.00,0,rob ver 1A,2013-02-12 03:01:00,
2013-02-11 20:06:00,51.3,17.6,29.62,South,176,0.8,0.9,26,-99.99,,,0.00,0,rob ver 1A,2013-02-12 03:06:00,
2013-02-11 20:11:00,51.3,18.7,29.62,SSE,165,2.2,2.4,27,-99.99,,,0.00,0,rob ver 1B,2013-02-12 03:11:00,
2013-02-11 20:16:00,50.5,18.4,29.62,SSE,165,2.2,2.2,27,-99.99,,,0.00,0,rob ver 1A,2013-02-12 03:16:00,
2013-02-11 20:21:00,50.4,18.3,29.62,South,177,2.4,2.5,27,-99.99,,,0.00,0,rob ver 1A,2013-02-12 03:21:00,
2013-02-11 20:26:00,50.6,18.1,29.62,South,187,2.3,2.3,27,-99.99,,,0.00,0,rob ver 1A,2013-02-12 03:26:00,
2013-02-11 20:31:00,50.6,18.1,29.62,SSW,208,2.5,2.9,27,-99.99,,,0.00,0,rob ver 1A,2013-02-12 03:31:00,
2013-02-11 20:36:00,50.7,18.0,29.62,SW,220,2.2,2.4,27,-99.99,,,0.00,0,rob ver 1B,2013-02-12 03:36:00,
2013-02-11 20:41:00,50.6,17.9,29.62,SW,231,2.2,2.6,26,-99.99,,,0.00,0,rob ver 1A,2013-02-12 03:41:00,
2013-02-11 20:46:00,50.3,18.2,29.62,SW,227,3.3,3.7,27,-99.99,,,0.00,0,rob ver 1A,2013-02-12 03:46:00,
2013-02-11 20:51:00,49.8,18.4,29.65,WSW,253,3.0,3.7,28,-99.99,,,0.00,0,rob ver 1A,2013-02-12 03:51:00,
2013-02-11 20:56:00,49.9,18.0,29.62,West,268,3.3,3.6,27,-99.99,,,0.00,0,rob ver 1A,2013-02-12 03:56:00,
2013-02-11 21:01:00,49.5,18.8,29.65,WNW,294,2.6,2.8,29,-99.99,,,0.00,0,rob ver 1A,2013-02-12 04:01:00,
2013-02-11 21:06:00,48.5,18.6,29.65,WNW,303,3.0,3.2,30,-99.99,,,0.00,0,rob ver 1A,2013-02-12 04:06:00,
2013-02-11 21:11:00,48.5,18.9,29.65,NW,305,3.0,3.2,30,-99.99,,,0.00,0,rob ver 1A,2013-02-12 04:11:00,
2013-02-11 21:16:00,48.5,18.3,29.65,NW,318,3.6,3.9,29,-99.99,,,0.00,0,rob ver 1A,2013-02-12 04:16:00,
2013-02-11 21:21:00,49.3,18.2,29.65,NNW,327,3.9,4.3,28,-99.99,,,0.00,0,rob ver 1A,2013-02-12 04:21:00,
2013-02-11 21:26:00,48.4,19.1,29.65,NNW,347,4.1,4.3,30,-99.99,,,0.00,0,rob ver 1A,2013-02-12 04:26:00,
2013-02-11 21:31:00,47.5,18.4,29.65,North,353,4.2,4.5,31,-99.99,,,0.00,0,rob ver 1A,2013-02-12 04:31:00,
2013-02-11 21:36:00,47.4,18.4,29.65,North,358,4.9,5.2,31,-99.99,,,0.00,0,rob ver 1A,2013-02-12 04:36:00,
2013-02-11 21:41:00,47.0,18.6,29.65,North,355,4.8,5.2,31,-99.99,,,0.00,0,rob ver 1A,2013-02-12 04:41:00,
2013-02-11 21:46:00,47.2,18.4,29.65,North,352,4.5,4.8,31,-99.99,,,0.00,0,rob ver 1A,2013-02-12 04:46:00,
2013-02-11 21:51:00,47.4,18.1,29.65,NNW,331,3.3,3.5,30,-99.99,,,0.00,0,rob ver 1B,2013-02-12 04:51:00,
2013-02-11 21:56:00,48.1,18.4,29.65,WSW,242,2.4,3.3,30,-99.99,,,0.00,0,rob ver 1A,2013-02-12 04:56:00,
2013-02-11 22:00:00,46.7,18.5,29.65,SSW,207,2.2,2.9,32,-99.99,,,0.00,0,rob ver 1A,2013-02-12 05:00:00,
2013-02-11 22:01:00,46.7,18.5,29.65,SSW,207,2.2,2.9,32,-99.99,,,0.00,0,rob ver 1B,2013-02-12 05:01:00,
2013-02-11 22:02:00,46.4,18.5,29.65,SSW,203,2.7,3.4,32,-99.99,,,0.00,0,rob ver 1A,2013-02-12 05:02:00,
2013-02-11 22:03:00,46.4,18.5,29.65,SSW,203,2.7,3.4,32,-99.99,,,0.00,0,rob ver 1A,2013-02-12 05:03:00,
2013-02-11 22:08:00,46.3,18.5,29.65,SW,216,2.0,2.2,32,-99.99,,,0.00,0,rob ver 1A,2013-02-12 05:08:00,
2013-02-11 22:13:00,46.0,18.6,29.65,SW,219,2.1,2.2,33,-99.99,,,0.00,0,rob ver 1A,2013-02-12 05:13:00,
2013-02-11 22:18:00,46.3,18.7,29.65,SW,226,1.7,1.9,32,-99.99,,,0.00,0,rob ver 1B,2013-02-12 05:18:00,
2013-02-11 22:23:00,46.6,18.7,29.65,WSW,257,1.3,2.0,32,-99.99,,,0.00,0,rob ver 1A,2013-02-12 05:23:00,
2013-02-11 22:28:00,46.7,18.6,29.65,WNW,294,2.0,2.6,32,-99.99,,,0.00,0,rob ver 1A,2013-02-12 05:28:00,
2013-02-11 22:33:00,46.6,18.8,29.65,WNW,291,2.4,2.7,32,-99.99,,,0.00,0,rob ver 1A,2013-02-12 05:33:00,
2013-02-11 22:38:00,45.7,19.0,29.65,WNW,297,2.3,2.5,34,-99.99,,,0.00,0,rob ver 1A,2013-02-12 05:38:00,
2013-02-11 22:43:00,45.2,19.0,29.65,NW,311,2.0,2.3,35,-99.99,,,0.00,0,rob ver 1A,2013-02-12 05:43:00,
2013-02-11 22:48:00,45.0,18.6,29.65,NNW,343,2.2,2.9,34,-99.99,,,0.00,0,rob ver 1A,2013-02-12 05:48:00,
2013-02-11 22:53:00,45.4,17.9,29.65,NNW,336,1.8,2.9,32,-99.99,,,0.00,0,rob ver 1A,2013-02-12 05:53:00,
2013-02-11 22:58:00,46.0,17.3,29.65,NW,306,2.0,2.9,31,-99.99,,,0.00,0,rob ver 1A,2013-02-12 05:58:00,
2013-02-11 23:03:00,45.2,18.4,29.68,East,79,4.7,5.1,34,-99.99,,,0.00,0,rob ver 1A,2013-02-12 06:03:00,
2013-02-11 23:08:00,43.0,18.9,29.68,ENE,67,5.4,6.6,37,-99.99,,,0.00,0,rob ver 1A,2013-02-12 06:08:00,
2013-02-11 23:13:00,42.9,19.4,29.68,ENE,65,5.0,6.7,38,-99.99,,,0.00,0,rob ver 1A,2013-02-12 06:13:00,
2013-02-11 23:18:00,44.5,17.3,29.68,NE,37,5.5,7.1,33,-99.99,,,0.00,0,rob ver 1A,2013-02-12 06:18:00,
2013-02-11 23:23:00,45.6,16.1,29.68,NNE,22,3.7,4.9,30,-99.99,,,0.00,0,rob ver 1A,2013-02-12 06:23:00,
2013-02-11 23:28:00,46.6,15.7,29.68,NNE,19,2.6,3.4,28,-99.99,,,0.00,0,rob ver 1A,2013-02-12 06:28:00,
2013-02-11 23:33:00,45.3,16.7,29.68,NNE,16,4.7,5.4,30,-99.99,,,0.00,0,rob ver 1A,2013-02-12 06:33:00,
2013-02-11 23:38:00,44.7,17.0,29.68,NNE,15,5.0,6.1,32,-99.99,,,0.00,0,rob ver 1A,2013-02-12 06:38:00,
2013-02-11 23:43:00,44.9,17.5,29.68,North,353,3.4,4.9,33,-99.99,,,0.00,0,rob ver 1A,2013-02-12 06:43:00,
2013-02-11 23:48:00,43.9,16.4,29.68,NNW,344,5.1,7.0,32,-99.99,,,0.00,0,rob ver 1A,2013-02-12 06:48:00,
2013-02-11 23:54:00,43.8,17.3,29.68,North,2,5.3,5.7,34,-99.99,,,0.00,0,rob ver 1A,2013-02-12 06:54:00,
2013-02-11 23:59:00,43.7,17.1,29.68,NNE,18,6.2,7.2,33,-99.99,,,0.00,0,rob ver 1A,2013-02-12 06:59:00,